Location: Cisewo
(53.3833°N, 14.9000°E)
Time: 11:06:57
(UTC+00:00)

COSMOS 2487 - Pass Details

Date: 18 April 2021
Orbit: 432 x 434 km, 74.7° (Epoch: 15 May)

Event Time Altitude Azimuth Distance (km) Brightness Sun altitude
Rises 18:58:23 0° 198° (SSW) 2,408 6.0 -7.8°
Reaches altitude 10° 19:00:27 10° 196° (SSW) 1,545 5.0 -8.0°
Maximum altitude 19:03:49 71° 113° (ESE) 468 2.3 -8.5°
Drops below altitude 10° 19:07:14 10° 28° (NNE) 1,559 5.2 -8.9°
Sets 19:09:19 0° 27° (NNE) 2,433 6.2 -9.2°
